Terminal Aerodrome Forecast
Issued by NWS

Home | Current Version | Previous Version | Text Only | Print | Product List | Glossary On
Versions: 1 2 3 4 5 6 7 8 9 10 11 12 13 14 15 16 17 18 19 20 21 22 23 24 25 26 27 28 29 30 31 32
000
FTUS44 KFWD 211446 AAC
TAFDAL
TAF AMD
KDAL 211446Z 2115/2212 13010KT P6SM VCTS SCT035 BKN060CB
      TEMPO 2115/2117 -TSRA
     FM211700 17013KT P6SM BKN080
     FM221000 17008KT P6SM SCT025 BKN030=

USA.gov is the U.S. government's official web portal to all federal, state and local government web resources and services.